• MPC Preparation (Info)

  • MPEC 2016-M26 : 2016 MJ

    The following Minor Planet Electronic Circular may be linked-to from your own Web pages, but must not otherwise be redistributed electronically.

    A form allowing access to any MPEC is at the bottom of this page.


    Read MPEC 2016-M25 Read MPEC 2016-M27


    M.P.E.C. 2016-M26                                Issued 2016 June 27, 15:09 UT
    
         The Minor Planet Electronic Circulars contain information on unusual
             minor planets and routine data on comets.  They are published
        on behalf of Division F of the International Astronomical Union by the
              Minor Planet Center, Smithsonian Astrophysical Observatory,
                              Cambridge, MA 02138, U.S.A.
    
                 Prepared using the Tamkin Foundation Computer Network
    
                                  MPC@CFA.HARVARD.EDU
                URL https://www.minorplanetcenter.net/    ISSN 1523-6714
    
                                        2016 MJ
    
    Observations:
         K16M00J* C2016 06 25.23937 14 41 14.91 +19 28 19.7          19.6 VqEM026703
         K16M00J  C2016 06 25.24337 14 41 15.05 +19 27 03.0          19.4 VqEM026703
         K16M00J  C2016 06 25.24537 14 41 15.06 +19 26 24.8          19.4 VqEM026703
         K16M00J  C2016 06 25.25396 14 41 15.52 +19 23 41.4          19.9 VqEM026703
         K16M00J  C2016 06 25.25446 14 41 15.55 +19 23 32.3          18.8 VqEM026703
         K16M00J  C2016 06 25.25496 14 41 15.55 +19 23 22.3          20.0 VqEM026703
         K16M00J  C2016 06 25.26718 14 41 16.17 +19 19 30.5                qEM026703
         K16M00J  C2016 06 25.26780 14 41 16.14 +19 19 17.8          19.7 VqEM026703
         K16M00J KC2016 06 25.89366 14 41 54.57 +16 01 44.0          19.7 VqEM026I93
         K16M00J KC2016 06 25.90286 14 41 54.95 +15 58 49.9          19.9 VqEM026I93
         K16M00J KC2016 06 25.91362 14 41 55.42 +15 55 25.2          19.7 VqEM026I93
         K16M00J KC2016 06 25.92120 14 41 55.16 +15 52 57.0          19.2 RoEM026461
         K16M00J KC2016 06 25.92514 14 41 55.29 +15 51 42.7          19.3 RoEM026461
         K16M00J KC2016 06 25.93170 14 41 55.80 +15 49 42.7          19.3 RuEM026104
         K16M00J KC2016 06 25.93242 14 41 55.97 +15 49 27.1          19.3 RqEM026203
         K16M00J KC2016 06 25.93752 14 41 56.06 +15 47 51.2          18.9 RuEM026104
         K16M00J KC2016 06 25.94334 14 41 56.31 +15 46 02.2          19.1 RuEM026104
         K16M00J KC2016 06 25.94416 14 41 56.51 +15 45 44.4                qEM026203
         K16M00J KC2016 06 26.13921114 42 09.04 +14 44 23.1          20.0 VuEM026H21
         K16M00J KC2016 06 26.14352314 42 09.21 +14 43 01.4          20.2 VuEM026H21
         K16M00J KC2016 06 26.14782614 42 09.41 +14 41 40.0          20.2 VuEM026H21
         K16M00J KC2016 06 26.15210814 42 09.58 +14 40 18.8          20.3 VuEM026H21
         K16M00J KC2016 06 26.15609014 42 09.75 +14 39 03.6          20.4 VuEM026H21
         K16M00J KC2016 06 27.17532 14 43 10.33 +09 20 09.3          19.2 RqEM026H36
         K16M00J KC2016 06 27.18153 14 43 10.63 +09 18 14.5          18.9 RqEM026H36
         K16M00J KC2016 06 27.18464 14 43 10.79 +09 17 16.8          19.8 RqEM026H36
         K16M00J "C2016 06 27.27815414 43 15.27 +08 48 24.4          19.4 RtEM026705
         K16M00J "C2016 06 27.27917114 43 15.32 +08 48 05.7          19.1 RtEM026705
         K16M00J "C2016 06 27.28019314 43 15.36 +08 47 46.5          19.4 RtEM026705
    
    Observer details:
    104 San Marcello Pistoiese.  Observers P. Bacci, M. Maestripieri. L. Nerli,
        L. Mazzei.  Measurers P. Bacci, L. Tesi, G. Fagioli, G. Bartolomei.
        0.60-m f/4 reflector + CCD.
    203 GiaGa Observatory.  Observers S. Foglia, G. Galli.  Measurer G. Galli.
        0.28-m f/6.8 Schmidt-Cassegrain + CCD.
    461 University of Szeged, Piszkesteto Stn. (Konkoly).  Observer K. Sarneczky.
        0.60-m Schmidt + CCD.
    703 Catalina Sky Survey.  Observer A. R. Gibbs.  Measurers E. J. Christensen,
        D. C. Fuls, A. R. Gibbs, A. D. Grauer, J. A. Johnson, R. A. Kowalski,
        S. M. Larson, G. J. Leonard, R. G. Matheny, R. L. Seaman, F. C. Shelly.
        0.68-m Schmidt + CCD.
    705 Apache Point.  Observers K. Nault, M. Hammergren, M. Brucker.  Measurer
        K. Nault.  3.5-m f/10 reflector + CCD.
    H21 Astronomical Research Observatory, Westfield.  Observer R. Holmes.
        Measurers S. Foglia, L. Buzzi, T. Linder, R. Holmes.  0.61-m f/4.5
        astrograph + CCD.
    H36 Sandlot Observatory, Scranton.  Observer G. Hug.  0.56-m reflector + CCD.
    I93 St Pardon de Conques.  Observer F. Losse.  0.40-m f/3.7 reflector + CCD.
    
    Orbital elements:
    2016 MJ                                                  Earth MOID = 0.1046 AU
    Epoch 2016 July 31.0 TT = JDT 2457600.5                 MPC
    M  31.00296              (2000.0)            P               Q
    n   0.37914877     Peri.  117.02282     -0.64878789     +0.38745454
    a   1.8905853      Node    92.88782     -0.67978604     -0.68190595
    e   0.5093235      Incl.   40.97867     +0.34200177     -0.62038960
    P   2.60           H   21.4           G   0.15           U   6
    Residuals in seconds of arc
    160625 703  0.0   1.5+    160625 I93  0.1-  0.5-    160626 H21  0.2+  0.4+
    160625 703  0.4-  0.6+    160625 461  0.7+  0.4-    160626 H21  0.0   0.2+
    160625 703  1.5-  0.3+    160625 461  0.2-  0.1+    160626 H21  0.0   0.4+
    160625 703  0.1-  0.3-    160625 104  0.1+  0.5+    160627 H36  0.6-  1.0-
    160625 703  0.0   0.1+    160625 203  0.6+  0.5-    160627 H36  0.1-  0.3-
    160625 703  0.3-  0.4-    160625 104  0.0   0.6-    160627 H36  0.2+  0.1-
    160625 703  1.1+  0.5-    160625 104  0.4-  0.8+    160627 705  0.0   0.3+
    160625 703  0.3+  1.4-    160625 203  0.4+  0.6-    160627 705  0.0   0.5+
    160625 I93  0.1+  0.0     160626 H21  0.1+  0.4+    160627 705  0.1-  0.3+
    160625 I93  0.1-  0.3+    160626 H21  0.1-  0.3+
    
    Ephemeris:
    2016 MJ                  a,e,i = 1.89, 0.51, 41                  q = 0.9277
    Date    TT    R. A. (2000) Decl.     Delta      r     Elong.  Phase     V
    2016 05 28    12 03 08.0 +87 10 56   0.4331  0.9546    69.8    85.0    22.5
    ...
    2016 06 12    14 24 50.6 +68 51 46   0.2559  1.0147    82.6    82.9    21.4
    ...
    2016 06 20    14 35 54.9 +44 42 57   0.1823  1.0574    98.1    72.1    20.3
    ...
    2016 06 26    14 42 01.5 +15 28 53   0.1629  1.0931   114.1    58.1    19.7
    2016 06 27    14 43 00.9 +10 15 17   0.1641  1.0993   116.4    56.0    19.7
    2016 06 28    14 44 00.7 +05 08 23   0.1667  1.1056   118.4    54.0    19.7
    ...
    2016 07 04    14 50 20.7 -20 14 01   0.2062  1.1445   123.9    47.5    20.1
    ...
    2016 07 12    15 00 27.1 -39 07 38   0.2969  1.1992   121.6    46.2    20.9
    ...
    2016 07 27    15 26 02.9 -53 25 42   0.5058  1.3070   114.2    45.1    22.2
    
    A. U. Tomatic                (C) Copyright 2016 MPC           M.P.E.C. 2016-M26
    

    Read MPEC 2016-M25 Read MPEC 2016-M27


    MPEC number:

    Enter an MPEC number in one of the following forms:

    • 1997-B01 (the full form)
    • J97B01 (the packed version of the full form)
    • B01 (the abbreviated form)